Back to catalog

FENGYUN 1C DEB

LostSSO
NORAD 37924·DEBRIS·🇨🇳 China

Launched May 10, 1999 from Taiyuan Satellite Launch Center

Loading…

Next Passes (next 24 hours)

TLE

StaleSource: Space-Track

Epoch: Apr 10, 2024, 04:00 UTC

1 37924U 99025ENZ 24101.16723876  .00003392  00000-0  14775-2 0  9991
2 37924  98.7825 172.7729 0047135  21.7463 338.5703 14.24055689786558

Track FENGYUN 1C DEB in real time with AllMySat

Download on the App Store